Regional Weather Roundup
Issued by NWS

Home | Current Version | Previous Version | Text Only | Print | Product List | Glossary Off
Versions: 1 2 3 4 5 6 7 8 9 10 11 12 13 14 15 16 17 18 19 20 21 22 23 24 25 26 27 28 29 30 31 32 33 34 35 36 37 38 39 40 41 42 43 44 45 46 47 48 49 50

055
ASUS43 KMPX 220310
RWRMN
WEATHER ROUNDUP FOR MINNESOTA
NATIONAL WEATHER SERVICE TWIN CITIES/CHANHASSEN MN
900 PM CST TUE FEB 21 2017


NOTE: "FAIR" INDICATES FEW OR NO CLOUDS BELOW 12,000 FEET WITH NO
SIGNIFICANT WEATHER AND/OR OBSTRUCTIONS TO VISIBILITY. N/A MEANS
CURRENT SKY AND/OR WEATHER CONDITIONS ARE NOT AVAILABLE.

MNZ060>063-068>070-220400-
   Twin Cities Metro

CITY           SKY/WX    TMP DP  RH WIND       PRES   REMARKS
TWIN CITIES    PTCLDY    53  44  71 S5        29.70S
ST PAUL        CLEAR     49  45  86 SE5       29.71S
CRYSTAL        PTCLDY    51  43  74 S6        29.68S
BLAINE         PTCLDY    52  46  82 S5        29.69S
LAKEVILLE      CLEAR     48  45  87 S5        29.71R
EDEN PRAIRIE   CLEAR     50  44  80 SW10      29.69S
SOUTH ST PAUL  CLEAR     49  45  83 SE3       29.70S
LAKE ELMO      FAIR      46  43  87 S7        29.71S
$$
MNZ001>005-007-008-013>017-022>024-027-028-220400-
   Northwest Minnesota

CITY           SKY/WX    TMP DP  RH WIND       PRES   REMARKS
BEMIDJI        CLOUDY    38  36  91 CALM      29.68S
HALLOCK        CLOUDY    34  32  93 CALM      29.69F FOG
ROSEAU         CLOUDY    34  28  80 NW3       29.69S
WARROAD        CLOUDY    32  28  86 CALM      29.69S
THIEF RVR FALL CLOUDY    35  34  96 NW7       29.69F FOG     WCI  29
CROOKSTON      MIX PCPN  34  32  93 N6        29.71R WCI  29
FOSSTON        DRIZZLE   34  34 100 CALM      29.69F
DETROIT LAKES  CLOUDY    39  36  87 CALM      29.68F
MOORHEAD       CLOUDY    39  37  93 N3        29.67F
PARK RAPIDS    CLOUDY    40  35  83 NW5       29.67S
MAHNOMEN       CLOUDY    36  36  98 NE5       29.67F
$$
MNZ006-009>011-018-025>026-220400-
   North Central Minnesota

CITY           SKY/WX    TMP DP  RH WIND       PRES   REMARKS
BAUDETTE       CLOUDY    34  31  88 N3        29.67S
FLAG ISLAND    CLOUDY    34  30  86 N7        29.69S WCI  28
INTL FALLS     PTCLDY    34  31  88 NW3       29.65S
WASKISH        MOCLDY    36  34  93 CALM      29.67S
BIG FORK       CLOUDY    36  32  87 CALM      29.66R
LONGVILLE      LGT RAIN  41  37  87 N6        29.67S
GRAND RAPIDS   CLOUDY    41  36  82 CALM      29.70R
CRANE LAKE     CLOUDY    28  28 100 CALM      29.67S
ORR            CLOUDY    37  30  75 CALM      29.64R
COOK           PTCLDY    34  30  86 CALM      29.66R
WALKER         LGT RAIN  41  36  82 NW7       29.67F
$$
MNZ012-019>021-037-220400-
   Northeast Minnesota

CITY           SKY/WX    TMP DP  RH WIND       PRES   REMARKS
DULUTH         CLOUDY    37  34  89 CALM      29.65F
ELY              N/A     36  32  87 CALM      29.65F
HIBBING        CLOUDY    33  33 100 CALM      29.64F
EVELETH        CLOUDY    35  32  89 CALM      29.65F
DULUTH HARBOR  MOCLDY    36  34  93 CALM      29.67F
TWO HARBORS    CLOUDY    37  32  81 CALM      29.65F
SILVER BAY     CLOUDY    34  32  93 CALM      29.64F
GRAND MARAIS     N/A     34  32  92 CALM      29.69F
G MARAIS ARPRT CLOUDY    34  27  75 CALM      29.67S
$$
MNZ029>031-032-039>041-046>048-054>057-064-220400-
   West Central Minnesota

CITY           SKY/WX    TMP DP  RH WIND       PRES   REMARKS
FERGUS FALLS   PTCLDY    43  41  93 CALM      29.71F
WHEATON        CLEAR     39  37  93 E6        29.69F
MORRIS         CLEAR     45  43  93 CALM      29.67F
ALEXANDRIA     CLOUDY    41  40  96 NW3       29.69F
ELBOW LAKE     FAIR      36  36  99 S5        29.68F
WADENA         MOCLDY    41  37  87 W5        29.68F
GLENWOOD       CLEAR     46  41  81 W5        29.69F
APPLETON       CLEAR     39  37  93 CALM      29.67F
BENSON         CLEAR     39  36  87 CALM      29.69F FOG
ORTONVILLE     PTCLDY    43  37  81 CALM      29.67F
MADISON        CLEAR     43  41  93 CALM      29.67F
WILLMAR        FAIR      43  43 100 CALM      29.70S
$$
MNZ033>034-036-042>043-049>051-058-059-220400-
   Central Minnesota

CITY           SKY/WX    TMP DP  RH WIND       PRES   REMARKS
ST CLOUD       PTCLDY    42  41  96 CALM      29.68S
SAUK CENTRE    FAIR      37  37 100 CALM      29.70S FOG
PAYNESVILLE    CLEAR     38  39 100 CALM      29.70S
AITKIN         PTCLDY    37  32  81 CALM      29.66S
PINE RIVER     MOCLDY    37  36  93 SW3       29.73R
BRAINERD       CLOUDY    42  38  85 W6        29.69R
STAPLES        CLOUDY    41  39  93 CALM      29.68S
LONG PRAIRIE   FAIR      41  37  87 CALM      29.69S
LITTLE FALLS   CLOUDY    39  37  93 CALM      29.69S
LITCHFIELD     PTCLDY    45  45 100 CALM      29.71R
BUFFALO        MOCLDY    44  40  88 CALM      29.70S
MAPLE LAKE     MOCLDY    43  42  95 CALM      29.70S
HUTCHINSON     CLOUDY    45  44  99 CALM      29.70S
$$
MNZ037-044-045-052-053-220400-
   East Central Minnesota

CITY           SKY/WX    TMP DP  RH WIND       PRES   REMARKS
PRINCETON      CLOUDY    45  41  87 CALM      29.69S
MORA           PTCLDY    37  36  93 CALM      29.70R
CAMBRIDGE      PTCLDY    46  39  76 CALM      29.67S
RUSH CITY      MOCLDY    46  41  81 S6        29.68F
MOOSE LAKE     CLOUDY    37  34  87 CALM      29.65S
HINCKLEY       FAIR      39  37  93 CALM      29.67S
CLOQUET        CLOUDY    39  34  81 CALM      29.66S
MCGREGOR       CLOUDY    37  36  93 SW3       29.67S
$$
MNZ071>073-080-081-089-090-097-098-220400-
   Southwest Minnesota

CITY           SKY/WX    TMP DP  RH WIND       PRES   REMARKS
MONTEVIDEO     CLEAR     45  41  87 S3        29.69F
GRANITE FALLS  CLEAR     42  41  95 CALM      29.70S
CANBY          CLEAR     42  38  84 CALM      29.68F
MARSHALL       CLEAR     47  40  76 W3        29.69F
REDWOOD FALLS  CLEAR     46  40  79 S8        29.69S
OLIVIA         CLEAR     43  41  93 CALM      29.69S
PIPESTONE      CLEAR     52  36  54 S5        29.69S
WINDOM         CLEAR     45  41  87 CALM      29.71R
WORTHINGTON    CLEAR     48  41  76 S8        29.71S
JACKSON        CLEAR     46  39  76 S8        29.72S
TRACY          CLEAR     49  41  74 SW9       29.70S
SLAYTON        CLEAR     45  40  82 CALM      29.71S
$$
MNZ065>067-074>077-082>085-091>093-220400-
   South Central Minnesota

CITY           SKY/WX    TMP DP  RH WIND       PRES   REMARKS
MANKATO          N/A     48  45  89 SE5       29.72S
NEW ULM        CLEAR     46  43  87 S6        29.70S
ST JAMES       CLEAR     48  43  81 S6        29.71S
FAIRMONT       CLEAR     50  43  77 SW8       29.73S
GLENCOE        PTCLDY    49  47  94 CALM      29.69R
FARIBAULT      CLEAR     48  45  87 CALM      29.73S
OWATONNA       CLEAR     50  43  76 S9        29.73S
WASECA         CLEAR     46  41  81 S10       29.73F
ALBERT LEA     CLEAR     54  43  66 S10       29.74R
$$
MNZ078>079-086>088-094>096-220400-
   Southeast Minnesota

CITY           SKY/WX    TMP DP  RH WIND       PRES   REMARKS
ROCHESTER      CLEAR     47  41  80 S14       29.75F
RED WING       CLEAR     52  41  66 S3        29.72S
STANTON        CLEAR     50  44  80 S8        29.71S
DODGE CENTER   CLEAR     46  41  81 S15       29.73F
WINONA         PTCLDY    54  41  62 SW3       29.77S
AUSTIN         CLEAR     46  39  76 S9        29.75S
PRESTON        CLEAR     48  39  71 S14       29.77S
$$
ABBREVIATIONS USED IN REMARKS
   TC - TEMPERATURES IN CELSIUS
  WCI - WIND CHILL INDEX
   HX - HEAT INDEX
  VSB - VISIBILITY
$$




USA.gov is the U.S. government's official web portal to all federal, state and local government web resources and services.